Location: Mount Graham
(32.7016°N, 109.8912°W)
Time: 23:22:11
(UTC-07:00)

Daily predictions for brighter satellites

Satellite Brightness Start Highest point End
(mag) Time Altitude Azimuth Time Altitude Azimuth Time Altitude Azimuth
Nadezhda 1 Rocket 4.2 18:34:17 10° N 18:40:41 84° W 18:46:57 10° S
USA 229 DEB 4.4 18:37:00 10° NNW 18:43:44 40° NE 18:50:32 10° ESE
USA 229 4.4 18:37:07 10° NNW 18:43:49 40° NE 18:50:36 10° ESE
Cosmos 2181 Rocket 4.4 18:39:18 10° N 18:45:05 40° E 18:50:47 10° SSE
NOAA 12 4.1 18:40:59 10° SSE 18:46:09 65° ENE 18:51:21 10° N
Cosmos 1943 4.3 18:42:43 10° SW 18:48:11 49° WNW 18:53:42 10° N
Yuri Rocket 4.5 18:46:09 10° SW 18:49:47 23° SSE 18:53:06 10° ESE
Cosmos 2263 4.3 18:45:30 10° N 18:51:01 55° ENE 18:56:32 10° SE
Cosmos 1378 4.3 18:49:21 10° NNE 18:52:28 24° ENE 18:55:35 10° SE
COSMO-SKYMED 1 4.2 18:48:47 10° N 18:52:51 40° WNW 18:56:54 10° SW
Cosmos 1763 Rocket 3.5 18:49:00 10° S 18:53:54 53° ESE 18:58:54 10° NNE
OAO 3 Copernicus 4.3 18:53:52 10° WSW 18:58:55 79° SSE 19:03:32 12° ENE
Cosmos 1758 Rocket 3.7 18:57:22 10° N 19:01:46 52° E 19:06:09 10° SSE
SJ-6B 3.6 18:58:22 10° SE 19:02:01 33° ENE 19:05:37 10° N
Thor Agena Rocket 3.6 18:56:46 10° NNE 19:02:02 87° WNW 19:07:12 10° SSW
Cosmos 1726 Rocket 3.5 18:59:46 10° S 19:04:08 80° E 19:08:30 10° N
Cosmos 1184 Rocket 3.9 19:02:26 10° NNW 19:05:42 49° W 19:08:58 10° S
Tiangong 2 1.9 19:02:38 10° WNW 19:05:44 47° SW 19:08:33 12° SE
Cosmos 304 Rocket 4.0 19:01:53 10° S 19:06:25 45° ESE 19:10:59 10° NNE
Cosmos 1709 Rocket 4.3 19:01:51 10° SSW 19:08:09 74° W 19:14:32 10° N
Resurs 01 Rocket 2.7 19:18:05 21° E 19:19:30 25° ENE 19:23:05 10° NNE
ALOS 3.0 19:18:49 10° S 19:23:22 55° W 19:27:57 10° NNW
FREGAT/IRIS 2.9 19:22:31 10° S 19:25:31 67° W 19:28:33 10° NNW
Cosmos 482 Debris 4.3 19:22:32 10° NNW 19:25:39 30° NNE 19:25:56 30° NE
GEOS 3 Rocket 4.1 19:21:20 10° NE 19:26:24 40° ESE 19:31:23 10° S
ATLAS CENTAUR R/B 3.5 19:17:08 10° NW 19:29:01 44° NNE 19:31:41 26° E
GPS 2-04 Rocket1 3.8 19:27:43 10° W 19:31:45 40° SSW 19:34:01 22° SSE
GP-B 4.2 19:28:29 10° NNE 19:31:31 25° ENE 19:31:31 25° ENE
Cosmos 1898 Rocket 3.8 19:28:05 10° NNW 19:33:13 67° WSW 19:38:20 10° S
Cosmos 2184 Rocket 3.9 19:27:27 10° S 19:33:40 70° E 19:39:58 10° N
H-2A R/B 2.7 19:30:16 10° S 19:33:56 77° W 19:37:40 10° NNW
Cosmos 2084 4.4 19:30:16 10° SW 19:34:16 46° WNW 19:38:05 10° NNE
Cosmos 1943 Rocket 2.4 19:29:25 10° NNW 19:35:00 73° WSW 19:40:35 10° SSE
Cosmos 2228 3.7 19:35:51 10° SSW 19:40:10 58° W 19:44:27 10° N
Lacrosse 5 3.3 19:35:47 10° WNW 19:40:23 36° WSW 19:44:58 10° S
Cosmos 1812 Rocket 4.0 19:41:33 37° E 19:41:33 37° E 19:45:25 10° NNE
Cosmos 2058 Rocket 4.0 19:37:51 10° SSW 19:42:03 49° W 19:46:18 10° N
USA 81 4.3 19:37:17 10° N 19:42:33 72° W 19:47:47 10° S
Meteor 2-5 Rocket 3.8 19:37:26 10° N 19:43:18 85° W 19:49:01 10° S
Meteor 1-22 Rocket 4.1 19:39:49 10° S 19:45:40 83° E 19:51:17 10° N
Cosmos 1766 3.1 19:41:45 10° S 19:45:41 79° E 19:49:36 10° N
Cosmos 990 Rocket 3.9 19:40:34 10° NNW 19:45:44 83° WSW 19:50:10 14° SSE
MOS 1-B Rocket 4.3 19:42:43 25° SE 19:46:06 46° ENE 19:51:39 10° N
BREEZE-M DEB 2.7 19:42:21 10° NW 19:48:45 64° NE 19:49:07 58° ENE
Envisat 3.3 19:48:56 41° E 19:49:46 44° ENE 19:54:34 10° N
Cosmos 2150 Rocket 4.2 19:46:32 10° NNW 19:51:53 72° WSW 19:56:52 12° S
Cosmos 2327 Rocket 4.5 19:51:28 10° S 19:57:37 81° W 20:03:44 10° N
Cosmos 1707 4.5 19:54:22 10° NNW 19:57:55 33° W 20:01:28 10° SSW
COSMOS 2406 3.2 19:52:46 10° SSW 19:58:27 84° WNW 20:04:13 10° NNE
Meteor 2-8 Rocket 4.3 19:56:28 10° N 20:02:33 66° E 20:05:00 37° SSE
Meteor 2-19 Rocket 4.3 20:03:42 10° S 20:09:44 83° E 20:15:48 10° N
Milstar 3 Cent rocket 2.7 20:10:34 10° WSW 20:14:23 37° S 20:14:23 37° S
Cosmos 1656 Rocket 3.7 20:09:47 10° NNW 20:15:25 79° WSW 20:16:56 50° S
Cosmos 962 Rocket 4.4 20:19:56 63° E 20:20:01 63° E 20:26:18 10° NNE
BREEZE-M DEB (TANK) 4.3 20:12:48 10° WSW 20:24:04 44° NW 20:26:09 28° NNE
Cosmos 2154 Rocket 4.3 20:32:19 10° SSW 20:38:27 64° W 20:44:39 10° N
NOSS 3-1 (A) 4.0 20:31:42 10° NNW 20:39:38 85° ENE 20:41:02 66° SE
Centaur D AC-29 2.8 20:31:35 10° WSW 20:38:54 36° SSW 20:38:54 36° SSW
Cosmos 2341 Rocket 4.0 20:46:35 73° NNW 20:46:35 73° NNW 20:52:15 10° N
NOSS 3-1 (C) 4.4 20:42:01 10° NW 20:49:50 64° WSW 20:52:06 48° S
Resurs 01 Rocket 3.7 20:55:40 23° W 20:55:51 23° W 20:59:21 10° NW
FALCON 9 R/B 3.7 21:20:10 10° WNW 21:22:28 38° WNW 21:22:28 38° WNW
